FORMATTED DATE-TIME,DT,MG,TR,WS,CW,HW,TP,WC,RH,HI,DP,WB,BP,AL,DA
YYYY-MM-DD HH:MM:SS,s,Mag,TRUE,mph,mph,mph,°F,°F,%,°F,°F,°F,inHg,m,m
08/13/2014  07:00:00,,210,210,7,,,57,,48,,,,,,
08/13/2014  08:00:00,,222,222,5,,,58,,40,,,,,,
08/13/2014  09:00:00,,62,62,7,,,57,,45,,,,,,
08/13/2014  10:00:00,,10,10,1,,,57,,45,,,,,,
08/13/2014  11:00:00,,247,247,7,,,55,,52,,,,,,
08/13/2014  12:00:00,,286,286,11,,,53,,62,,,,,,
08/13/2014  13:00:00,,43,43,10,,,53,,62,,,,,,
08/13/2014  14:00:00,,52,52,16,,,51,,74,,,,,,
08/13/2014  15:00:00,,268,268,3,,,53,,77,,,,,,
08/13/2014  16:00:00,,43,43,9,,,51,,85,,,,,,
08/13/2014  17:00:00,,67,67,5,,,54,,82,,,,,,
08/13/2014  18:00:00,,127,127,2,,,61,,69,,,,,,
08/13/2014  19:00:00,,337,337,1,,,67,,62,,,,,,
08/13/2014  20:00:00,,246,246,1,,,71,,54,,,,,,
08/13/2014  21:00:00,,242,242,3,,,63,,51,,,,,,
08/13/2014  22:00:00,,275,275,6,,,63,,54,,,,,,
08/13/2014  23:00:00,,263,263,2,,,67,,52,,,,,,
08/14/2014  00:00:00,,277,277,7,,,62,,57,,,,,,
08/14/2014  01:00:00,,281,281,8,,,65,,55,,,,,,
08/14/2014  02:00:00,,297,297,7,,,60,,60,,,,,,
08/14/2014  03:00:00,,7,7,12,,,57,,67,,,,,,
08/14/2014  04:00:00,,32,32,10,,,56,,73,,,,,,
08/14/2014  05:00:00,,37,37,12,,,55,,79,,,,,,
08/14/2014  06:00:00,,38,38,9,,,55,,78,,,,,,
08/14/2014  07:00:00,,49,49,9,,,54,,79,,,,,,
08/14/2014  08:00:00,,53,53,10,,,54,,80,,,,,,
08/14/2014  09:00:00,,48,48,9,,,53,,82,,,,,,
08/14/2014  10:00:00,,50,50,11,,,53,,84,,,,,,
08/14/2014  11:00:00,,40,40,8,,,52,,84,,,,,,
08/14/2014  12:00:00,,79,79,6,,,53,,82,,,,,,
08/14/2014  13:00:00,,79,79,5,,,53,,81,,,,,,
08/14/2014  14:00:00,,338,338,4,,,55,,75,,,,,,
08/14/2014  15:00:00,,343,343,1,,,57,,72,,,,,,
08/14/2014  16:00:00,,338,338,1,,,63,,58,,,,,,
08/14/2014  17:00:00,,200,200,2,,,67,,55,,,,,,
08/14/2014  18:00:00,,270,270,1,,,70,,52,,,,,,
08/14/2014  19:00:00,,243,243,2,,,72,,45,,,,,,
08/14/2014  20:00:00,,242,242,4,,,74,,43,,,,,,
08/14/2014  21:00:00,,248,248,5,,,77,,38,,,,,,
08/14/2014  22:00:00,,282,282,6,,,78,,36,,,,,,
08/14/2014  23:00:00,,277,277,7,,,78,,36,,,,,,
08/15/2014  00:00:00,,287,287,9,,,73,,44,,,,,,
08/15/2014  01:00:00,,281,281,10,,,69,,47,,,,,,
08/15/2014  02:00:00,,279,279,9,,,65,,56,,,,,,
08/15/2014  03:00:00,,300,300,9,,,60,,66,,,,,,
08/15/2014  04:00:00,,302,302,6,,,59,,70,,,,,,
08/15/2014  05:00:00,,277,277,4,,,59,,71,,,,,,
08/15/2014  06:00:00,,242,242,6,,,58,,73,,,,,,
08/15/2014  07:00:00,,310,310,4,,,58,,76,,,,,,
08/15/2014  08:00:00,,55,55,1,,,58,,77,,,,,,
08/15/2014  09:00:00,,100,100,3,,,57,,76,,,,,,
08/15/2014  10:00:00,,224,224,7,,,56,,74,,,,,,
08/15/2014  11:00:00,,224,224,4,,,56,,75,,,,,,
08/15/2014  12:00:00,,239,239,2,,,56,,75,,,,,,
08/15/2014  13:00:00,,186,186,3,,,56,,78,,,,,,
08/15/2014  14:00:00,,195,195,3,,,59,,72,,,,,,
08/15/2014  15:00:00,,43,43,1,,,63,,65,,,,,,
08/15/2014  16:00:00,,229,229,0,,,66,,59,,,,,,
08/15/2014  17:00:00,,208,208,3,,,67,,54,,,,,,
08/15/2014  18:00:00,,206,206,2,,,74,,47,,,,,,
08/15/2014  19:00:00,,271,271,1,,,77,,42,,,,,,
08/15/2014  20:00:00,,234,234,2,,,80,,34,,,,,,
08/15/2014  21:00:00,,247,247,3,,,81,,34,,,,,,
08/15/2014  22:00:00,,254,254,3,,,84,,29,,,,,,
08/15/2014  23:00:00,,246,246,4,,,83,,29,,,,,,
08/16/2014  00:00:00,,262,262,4,,,83,,26,,,,,,
08/16/2014  01:00:00,,252,252,5,,,77,,32,,,,,,
08/16/2014  02:00:00,,270,270,7,,,71,,45,,,,,,
08/16/2014  03:00:00,,284,284,9,,,69,,41,,,,,,
08/16/2014  04:00:00,,270,270,7,,,68,,26,,,,,,
08/16/2014  05:00:00,,232,232,5,,,67,,30,,,,,,
08/16/2014  06:00:00,,150,150,0,,,66,,32,,,,,,
08/16/2014  07:00:00,,53,53,1,,,65,,40,,,,,,
08/16/2014  08:00:00,,102,102,4,,,64,,42,,,,,,
08/16/2014  09:00:00,,105,105,4,,,64,,42,,,,,,
08/16/2014  10:00:00,,101,101,4,,,63,,43,,,,,,
08/16/2014  11:00:00,,120,120,4,,,63,,40,,,,,,
08/16/2014  12:00:00,,111,111,8,,,61,,49,,,,,,
08/16/2014  13:00:00,,114,114,8,,,60,,54,,,,,,
08/16/2014  14:00:00,,103,103,8,,,66,,47,,,,,,
08/16/2014  15:00:00,,104,104,11,,,68,,45,,,,,,
08/16/2014  16:00:00,,103,103,7,,,73,,41,,,,,,
08/16/2014  17:00:00,,104,104,3,,,76,,37,,,,,,
08/16/2014  18:00:00,,113,113,3,,,79,,32,,,,,,
08/16/2014  19:00:00,,304,304,1,,,82,,29,,,,,,
08/16/2014  20:00:00,,247,247,3,,,85,,16,,,,,,
08/16/2014  21:00:00,,269,269,1,,,87,,16,,,,,,
08/16/2014  22:00:00,,259,259,3,,,85,,24,,,,,,
08/16/2014  23:00:00,,256,256,4,,,81,,27,,,,,,
08/17/2014  00:00:00,,271,271,7,,,79,,28,,,,,,
08/17/2014  01:00:00,,283,283,9,,,76,,29,,,,,,
08/17/2014  02:00:00,,300,300,11,,,72,,31,,,,,,
08/17/2014  03:00:00,,303,303,10,,,70,,28,,,,,,
08/17/2014  04:00:00,,353,353,4,,,70,,29,,,,,,
08/17/2014  05:00:00,,28,28,6,,,70,,34,,,,,,
08/17/2014  06:00:00,,56,56,10,,,68,,45,,,,,,
08/17/2014  07:00:00,,48,48,12,,,67,,52,,,,,,
08/17/2014  08:00:00,,45,45,7,,,67,,53,,,,,,
08/17/2014  09:00:00,,41,41,8,,,66,,57,,,,,,
08/17/2014  10:00:00,,43,43,8,,,66,,58,,,,,,
08/17/2014  11:00:00,,76,76,6,,,65,,59,,,,,,
08/17/2014  12:00:00,,61,61,4,,,65,,53,,,,,,
08/17/2014  13:00:00,,86,86,5,,,66,,52,,,,,,
08/17/2014  14:00:00,,75,75,4,,,69,,45,,,,,,
08/17/2014  15:00:00,,82,82,5,,,73,,42,,,,,,
08/17/2014  16:00:00,,92,92,5,,,76,,37,,,,,,
08/17/2014  17:00:00,,103,103,3,,,79,,35,,,,,,
08/17/2014  18:00:00,,65,65,3,,,81,,33,,,,,,
08/17/2014  19:00:00,,240,240,1,,,84,,30,,,,,,
08/17/2014  20:00:00,,234,234,4,,,84,,29,,,,,,
08/17/2014  21:00:00,,246,246,4,,,85,,25,,,,,,
08/17/2014  22:00:00,,274,274,6,,,83,,31,,,,,,
08/17/2014  23:00:00,,282,282,6,,,80,,33,,,,,,
08/18/2014  00:00:00,,286,286,6,,,82,,32,,,,,,
08/18/2014  01:00:00,,312,312,4,,,79,,38,,,,,,
08/18/2014  02:00:00,,303,303,5,,,74,,40,,,,,,
08/18/2014  03:00:00,,8,8,10,,,71,,42,,,,,,
08/18/2014  04:00:00,,50,50,10,,,70,,41,,,,,,
08/18/2014  05:00:00,,55,55,11,,,68,,44,,,,,,
08/18/2014  06:00:00,,52,52,13,,,67,,48,,,,,,
08/18/2014  07:00:00,,51,51,12,,,67,,48,,,,,,
08/18/2014  08:00:00,,55,55,9,,,66,,48,,,,,,
08/18/2014  09:00:00,,54,54,6,,,67,,42,,,,,,
08/18/2014  10:00:00,,79,79,4,,,64,,49,,,,,,
08/18/2014  11:00:00,,94,94,8,,,65,,47,,,,,,
08/18/2014  12:00:00,,106,106,10,,,64,,49,,,,,,
08/18/2014  13:00:00,,97,97,10,,,65,,48,,,,,,
08/18/2014  14:00:00,,92,92,10,,,69,,44,,,,,,
08/18/2014  15:00:00,,83,83,8,,,72,,40,,,,,,
08/18/2014  16:00:00,,77,77,5,,,75,,38,,,,,,
08/18/2014  17:00:00,,69,69,4,,,77,,37,,,,,,
08/18/2014  18:00:00,,67,67,5,,,78,,36,,,,,,
08/18/2014  19:00:00,,5,5,1,,,83,,30,,,,,,
08/18/2014  20:00:00,,258,258,1,,,86,,28,,,,,,
08/18/2014  21:00:00,,246,246,4,,,79,,34,,,,,,
08/18/2014  22:00:00,,242,242,11,,,68,,54,,,,,,
08/18/2014  23:00:00,,307,307,6,,,69,,42,,,,,,
08/19/2014  00:00:00,,286,286,8,,,69,,38,,,,,,
08/19/2014  01:00:00,,278,278,7,,,69,,35,,,,,,
08/19/2014  02:00:00,,355,355,8,,,70,,34,,,,,,
08/19/2014  03:00:00,,354,354,8,,,70,,31,,,,,,
08/19/2014  04:00:00,,358,358,10,,,69,,40,,,,,,
08/19/2014  05:00:00,,14,14,6,,,68,,44,,,,,,
08/19/2014  06:00:00,,53,53,10,,,67,,50,,,,,,
08/19/2014  07:00:00,,8,8,3,,,67,,48,,,,,,
08/19/2014  08:00:00,,16,16,9,,,67,,51,,,,,,
08/19/2014  09:00:00,,26,26,11,,,66,,55,,,,,,
08/19/2014  10:00:00,,36,36,7,,,66,,56,,,,,,
08/19/2014  11:00:00,,33,33,6,,,66,,56,,,,,,
08/19/2014  12:00:00,,30,30,5,,,67,,55,,,,,,
08/19/2014  13:00:00,,334,334,4,,,65,,55,,,,,,
08/19/2014  14:00:00,,47,47,2,,,71,,51,,,,,,
08/19/2014  15:00:00,,44,44,5,,,71,,50,,,,,,
08/19/2014  16:00:00,,20,20,5,,,73,,51,,,,,,
08/19/2014  17:00:00,,35,35,7,,,75,,48,,,,,,
08/19/2014  18:00:00,,304,304,2,,,80,,43,,,,,,
08/19/2014  19:00:00,,245,245,1,,,83,,39,,,,,,
08/19/2014  20:00:00,,281,281,4,,,86,,34,,,,,,
08/19/2014  21:00:00,,271,271,5,,,89,,27,,,,,,
08/19/2014  22:00:00,,269,269,6,,,87,,22,,,,,,
08/19/2014  23:00:00,,277,277,8,,,87,,23,,,,,,
08/20/2014  00:00:00,,288,288,9,,,84,,28,,,,,,
08/20/2014  01:00:00,,303,303,9,,,79,,29,,,,,,
08/20/2014  02:00:00,,325,325,10,,,73,,32,,,,,,
08/20/2014  03:00:00,,360,360,9,,,67,,47,,,,,,
08/20/2014  04:00:00,,333,333,9,,,65,,50,,,,,,
08/20/2014  05:00:00,,343,343,6,,,63,,55,,,,,,
08/20/2014  06:00:00,,28,28,9,,,62,,60,,,,,,
08/20/2014  07:00:00,,34,34,13,,,60,,65,,,,,,
08/20/2014  08:00:00,,36,36,13,,,60,,70,,,,,,
08/20/2014  09:00:00,,44,44,11,,,59,,72,,,,,,
08/20/2014  10:00:00,,23,23,9,,,59,,71,,,,,,
08/20/2014  11:00:00,,15,15,9,,,60,,69,,,,,,
08/20/2014  12:00:00,,53,53,11,,,59,,70,,,,,,
08/20/2014  13:00:00,,12,12,9,,,60,,65,,,,,,
08/20/2014  14:00:00,,46,46,9,,,62,,63,,,,,,
08/20/2014  15:00:00,,59,59,7,,,65,,57,,,,,,
08/20/2014  16:00:00,,20,20,4,,,68,,54,,,,,,
08/20/2014  17:00:00,,23,23,2,,,71,,49,,,,,,
08/20/2014  18:00:00,,293,293,3,,,69,,53,,,,,,
08/20/2014  19:00:00,,245,245,3,,,73,,45,,,,,,
08/20/2014  20:00:00,,276,276,4,,,81,,34,,,,,,
08/20/2014  21:00:00,,267,267,5,,,83,,34,,,,,,
08/20/2014  22:00:00,,271,271,8,,,82,,33,,,,,,
08/20/2014  23:00:00,,276,276,8,,,81,,32,,,,,,
08/21/2014  00:00:00,,280,280,11,,,76,,41,,,,,,
08/21/2014  01:00:00,,280,280,11,,,72,,47,,,,,,
08/21/2014  02:00:00,,294,294,10,,,67,,53,,,,,,
08/21/2014  03:00:00,,359,359,12,,,63,,61,,,,,,
08/21/2014  04:00:00,,350,350,10,,,61,,62,,,,,,
08/21/2014  05:00:00,,40,40,8,,,60,,65,,,,,,
08/21/2014  06:00:00,,21,21,8,,,59,,62,,,,,,
08/21/2014  07:00:00,,312,312,5,,,59,,49,,,,,,
08/21/2014  08:00:00,,21,21,8,,,57,,59,,,,,,
08/21/2014  09:00:00,,49,49,8,,,57,,59,,,,,,
08/21/2014  10:00:00,,51,51,7,,,56,,61,,,,,,
08/21/2014  11:00:00,,55,55,7,,,56,,58,,,,,,
08/21/2014  12:00:00,,64,64,6,,,56,,55,,,,,,
08/21/2014  13:00:00,,84,84,6,,,57,,56,,,,,,
08/21/2014  14:00:00,,67,67,7,,,59,,50,,,,,,
08/21/2014  15:00:00,,75,75,6,,,62,,49,,,,,,
08/21/2014  16:00:00,,78,78,6,,,65,,48,,,,,,
08/21/2014  17:00:00,,28,28,3,,,69,,40,,,,,,
08/21/2014  18:00:00,,40,40,2,,,73,,29,,,,,,
08/21/2014  19:00:00,,203,203,2,,,76,,31,,,,,,
08/21/2014  20:00:00,,281,281,4,,,82,,16,,,,,,
08/21/2014  21:00:00,,264,264,5,,,83,,14,,,,,,
08/21/2014  22:00:00,,273,273,8,,,80,,18,,,,,,
08/21/2014  23:00:00,,283,283,9,,,79,,19,,,,,,
08/22/2014  00:00:00,,270,270,9,,,79,,26,,,,,,
08/22/2014  01:00:00,,268,268,10,,,74,,29,,,,,,
08/22/2014  02:00:00,,275,275,11,,,67,,35,,,,,,
08/22/2014  03:00:00,,274,274,12,,,62,,45,,,,,,
08/22/2014  04:00:00,,251,251,7,,,60,,47,,,,,,
08/22/2014  05:00:00,,257,257,6,,,60,,32,,,,,,
08/22/2014  06:00:00,,273,273,8,,,59,,28,,,,,,
08/22/2014  07:00:00,,291,291,9,,,58,,36,,,,,,
08/22/2014  08:00:00,,284,284,10,,,57,,41,,,,,,
08/22/2014  09:00:00,,282,282,7,,,56,,45,,,,,,
08/22/2014  10:00:00,,303,303,4,,,55,,51,,,,,,
08/22/2014  11:00:00,,313,313,4,,,55,,54,,,,,,
08/22/2014  12:00:00,,67,67,4,,,55,,52,,,,,,
08/22/2014  13:00:00,,288,288,2,,,54,,59,,,,,,
08/22/2014  14:00:00,,2,2,1,,,58,,56,,,,,,
08/22/2014  15:00:00,,46,46,1,,,61,,53,,,,,,
08/22/2014  16:00:00,,36,36,4,,,62,,52,,,,,,
08/22/2014  17:00:00,,33,33,3,,,65,,45,,,,,,
08/22/2014  18:00:00,,12,12,2,,,69,,41,,,,,,
08/22/2014  19:00:00,,17,17,1,,,72,,37,,,,,,
08/22/2014  20:00:00,,308,308,2,,,76,,30,,,,,,
08/22/2014  21:00:00,,274,274,5,,,78,,29,,,,,,
08/22/2014  22:00:00,,279,279,8,,,76,,28,,,,,,
08/22/2014  23:00:00,,306,306,5,,,79,,26,,,,,,
08/23/2014  00:00:00,,311,311,4,,,78,,27,,,,,,
08/23/2014  01:00:00,,329,329,6,,,71,,31,,,,,,
08/23/2014  02:00:00,,4,4,11,,,63,,39,,,,,,
08/23/2014  03:00:00,,34,34,21,,,60,,46,,,,,,
08/23/2014  04:00:00,,43,43,15,,,59,,50,,,,,,
08/23/2014  05:00:00,,51,51,18,,,58,,55,,,,,,
08/23/2014  06:00:00,,55,55,12,,,56,,58,,,,,,
08/23/2014  07:00:00,,60,60,19,,,56,,60,,,,,,
08/23/2014  08:00:00,,77,77,12,,,55,,62,,,,,,
08/23/2014  09:00:00,,92,92,14,,,56,,58,,,,,,
08/23/2014  10:00:00,,92,92,18,,,56,,59,,,,,,
08/23/2014  11:00:00,,88,88,17,,,56,,58,,,,,,
08/23/2014  12:00:00,,92,92,18,,,55,,58,,,,,,
08/23/2014  13:00:00,,93,93,22,,,55,,58,,,,,,
08/23/2014  14:00:00,,95,95,22,,,57,,54,,,,,,
08/23/2014  15:00:00,,94,94,21,,,60,,49,,,,,,
08/23/2014  16:00:00,,87,87,18,,,62,,43,,,,,,
08/23/2014  17:00:00,,91,91,14,,,67,,38,,,,,,
08/23/2014  18:00:00,,93,93,7,,,74,,29,,,,,,
08/23/2014  19:00:00,,101,101,5,,,76,,26,,,,,,
08/23/2014  20:00:00,,97,97,5,,,78,,22,,,,,,
08/23/2014  21:00:00,,128,128,3,,,80,,19,,,,,,
08/23/2014  22:00:00,,18,18,3,,,79,,21,,,,,,
08/23/2014  23:00:00,,264,264,2,,,84,,20,,,,,,
08/24/2014  00:00:00,,293,293,5,,,82,,24,,,,,,
08/24/2014  01:00:00,,309,309,4,,,78,,25,,,,,,
08/24/2014  02:00:00,,10,10,8,,,70,,27,,,,,,
08/24/2014  03:00:00,,40,40,10,,,68,,29,,,,,,
08/24/2014  04:00:00,,48,48,18,,,66,,36,,,,,,
08/24/2014  05:00:00,,52,52,16,,,65,,42,,,,,,
08/24/2014  06:00:00,,49,49,11,,,64,,45,,,,,,
08/24/2014  07:00:00,,50,50,15,,,63,,47,,,,,,
08/24/2014  08:00:00,,54,54,14,,,62,,50,,,,,,
08/24/2014  09:00:00,,54,54,16,,,62,,51,,,,,,
08/24/2014  10:00:00,,56,56,16,,,61,,52,,,,,,
08/24/2014  11:00:00,,68,68,14,,,60,,53,,,,,,
08/24/2014  12:00:00,,81,81,14,,,60,,50,,,,,,
08/24/2014  13:00:00,,84,84,15,,,61,,48,,,,,,
08/24/2014  14:00:00,,77,77,11,,,63,,45,,,,,,
08/24/2014  15:00:00,,79,79,9,,,65,,43,,,,,,
08/24/2014  16:00:00,,58,58,6,,,68,,41,,,,,,
08/24/2014  17:00:00,,50,50,6,,,70,,39,,,,,,
08/24/2014  18:00:00,,73,73,4,,,74,,33,,,,,,
08/24/2014  19:00:00,,2,2,1,,,80,,29,,,,,,
08/24/2014  20:00:00,,237,237,2,,,81,,28,,,,,,
08/24/2014  21:00:00,,264,264,5,,,84,,23,,,,,,
08/24/2014  22:00:00,,291,291,4,,,86,,22,,,,,,
08/24/2014  23:00:00,,283,283,8,,,83,,18,,,,,,
08/25/2014  00:00:00,,270,270,10,,,80,,27,,,,,,
08/25/2014  01:00:00,,267,267,11,,,75,,34,,,,,,
08/25/2014  02:00:00,,266,266,10,,,68,,40,,,,,,
08/25/2014  03:00:00,,302,302,7,,,64,,44,,,,,,
08/25/2014  04:00:00,,295,295,7,,,62,,47,,,,,,
08/25/2014  05:00:00,,36,36,12,,,61,,49,,,,,,
08/25/2014  06:00:00,,50,50,17,,,60,,52,,,,,,
08/25/2014  07:00:00,,53,53,14,,,59,,49,,,,,,
08/25/2014  08:00:00,,53,53,16,,,58,,49,,,,,,
08/25/2014  09:00:00,,75,75,8,,,58,,50,,,,,,
08/25/2014  10:00:00,,82,82,10,,,57,,49,,,,,,
08/25/2014  11:00:00,,58,58,16,,,57,,50,,,,,,
08/25/2014  12:00:00,,67,67,15,,,56,,52,,,,,,
08/25/2014  13:00:00,,52,52,16,,,56,,53,,,,,,
08/25/2014  14:00:00,,55,55,15,,,58,,50,,,,,,
08/25/2014  15:00:00,,72,72,10,,,62,,46,,,,,,
08/25/2014  16:00:00,,83,83,10,,,64,,42,,,,,,
08/25/2014  17:00:00,,83,83,6,,,68,,39,,,,,,
08/25/2014  18:00:00,,77,77,5,,,72,,34,,,,,,
08/25/2014  19:00:00,,93,93,8,,,75,,31,,,,,,
08/25/2014  20:00:00,,130,130,4,,,80,,25,,,,,,
08/25/2014  21:00:00,,37,37,4,,,78,,25,,,,,,
08/25/2014  22:00:00,,48,48,3,,,79,,24,,,,,,
08/25/2014  23:00:00,,76,76,6,,,76,,25,,,,,,
08/26/2014  00:00:00,,333,333,3,,,81,,25,,,,,,
08/26/2014  01:00:00,,354,354,5,,,76,,26,,,,,,
08/26/2014  02:00:00,,9,9,10,,,71,,29,,,,,,
08/26/2014  03:00:00,,53,53,15,,,69,,30,,,,,,
08/26/2014  04:00:00,,39,39,14,,,68,,36,,,,,,
08/26/2014  05:00:00,,45,45,13,,,67,,40,,,,,,
08/26/2014  06:00:00,,54,54,14,,,66,,41,,,,,,
08/26/2014  07:00:00,,58,58,12,,,66,,42,,,,,,
08/26/2014  08:00:00,,51,51,10,,,65,,43,,,,,,
08/26/2014  09:00:00,,61,61,9,,,65,,44,,,,,,
08/26/2014  10:00:00,,106,106,9,,,64,,43,,,,,,
08/26/2014  11:00:00,,103,103,12,,,63,,43,,,,,,
08/26/2014  12:00:00,,98,98,16,,,62,,42,,,,,,
08/26/2014  13:00:00,,94,94,17,,,63,,42,,,,,,
08/26/2014  14:00:00,,93,93,15,,,64,,41,,,,,,
08/26/2014  15:00:00,,94,94,16,,,65,,39,,,,,,
08/26/2014  16:00:00,,87,87,9,,,69,,35,,,,,,
08/26/2014  17:00:00,,88,88,6,,,72,,31,,,,,,
08/26/2014  18:00:00,,79,79,3,,,78,,24,,,,,,
08/26/2014  19:00:00,,297,297,2,,,83,,23,,,,,,
08/26/2014  20:00:00,,268,268,3,,,85,,23,,,,,,
08/26/2014  21:00:00,,272,272,2,,,87,,21,,,,,,
08/26/2014  22:00:00,,240,240,5,,,84,,22,,,,,,
08/26/2014  23:00:00,,248,248,7,,,85,,21,,,,,,
08/27/2014  00:00:00,,265,265,4,,,83,,23,,,,,,
08/27/2014  01:00:00,,266,266,8,,,79,,28,,,,,,
08/27/2014  02:00:00,,307,307,7,,,72,,33,,,,,,
08/27/2014  03:00:00,,306,306,6,,,70,,37,,,,,,
08/27/2014  04:00:00,,19,19,9,,,70,,40,,,,,,
08/27/2014  05:00:00,,44,44,8,,,69,,37,,,,,,
08/27/2014  06:00:00,,48,48,8,,,69,,36,,,,,,
08/27/2014  07:00:00,,23,23,4,,,69,,34,,,,,,
08/27/2014  08:00:00,,36,36,3,,,69,,33,,,,,,
08/27/2014  09:00:00,,9,9,2,,,68,,37,,,,,,
08/27/2014  10:00:00,,29,29,1,,,68,,39,,,,,,
08/27/2014  11:00:00,,97,97,6,,,66,,44,,,,,,
08/27/2014  12:00:00,,114,114,6,,,65,,43,,,,,,
08/27/2014  13:00:00,,108,108,7,,,64,,44,,,,,,
08/27/2014  14:00:00,,78,78,1,,,67,,41,,,,,,
08/27/2014  15:00:00,,307,307,0,,,69,,41,,,,,,
08/27/2014  16:00:00,,293,293,1,,,72,,38,,,,,,
08/27/2014  17:00:00,,101,101,3,,,77,,32,,,,,,
08/27/2014  18:00:00,,102,102,2,,,79,,28,,,,,,
08/27/2014  19:00:00,,197,197,2,,,83,,27,,,,,,
08/27/2014  20:00:00,,222,222,5,,,84,,28,,,,,,
08/27/2014  21:00:00,,243,243,4,,,85,,26,,,,,,
08/27/2014  22:00:00,,246,246,4,,,86,,24,,,,,,
08/27/2014  23:00:00,,253,253,4,,,86,,24,,,,,,
08/28/2014  00:00:00,,257,257,5,,,85,,23,,,,,,
08/28/2014  01:00:00,,267,267,6,,,81,,27,,,,,,
08/28/2014  02:00:00,,265,265,8,,,75,,27,,,,,,
08/28/2014  03:00:00,,287,287,7,,,73,,26,,,,,,
08/28/2014  04:00:00,,268,268,4,,,72,,26,,,,,,
08/28/2014  05:00:00,,216,216,8,,,70,,27,,,,,,
08/28/2014  06:00:00,,205,205,7,,,70,,27,,,,,,
08/28/2014  07:00:00,,229,229,9,,,69,,27,,,,,,
08/28/2014  08:00:00,,224,224,7,,,69,,25,,,,,,
08/28/2014  09:00:00,,224,224,7,,,69,,25,,,,,,
08/28/2014  10:00:00,,215,215,6,,,69,,26,,,,,,
08/28/2014  11:00:00,,225,225,5,,,68,,26,,,,,,
08/28/2014  12:00:00,,208,208,7,,,64,,36,,,,,,
08/28/2014  13:00:00,,169,169,1,,,67,,29,,,,,,
08/28/2014  14:00:00,,204,204,5,,,68,,30,,,,,,
08/28/2014  15:00:00,,198,198,4,,,71,,29,,,,,,
08/28/2014  16:00:00,,208,208,4,,,71,,30,,,,,,
08/28/2014  17:00:00,,217,217,4,,,74,,26,,,,,,
08/28/2014  18:00:00,,217,217,5,,,77,,18,,,,,,
08/28/2014  19:00:00,,229,229,4,,,81,,15,,,,,,
08/28/2014  20:00:00,,233,233,3,,,84,,17,,,,,,
08/28/2014  21:00:00,,254,254,2,,,87,,18,,,,,,
08/28/2014  22:00:00,,243,243,5,,,87,,17,,,,,,
08/28/2014  23:00:00,,278,278,4,,,90,,20,,,,,,
08/29/2014  00:00:00,,280,280,4,,,86,,25,,,,,,
08/29/2014  01:00:00,,276,276,8,,,79,,30,,,,,,
08/29/2014  02:00:00,,272,272,9,,,73,,34,,,,,,
08/29/2014  03:00:00,,281,281,8,,,71,,32,,,,,,
08/29/2014  04:00:00,,246,246,3,,,70,,33,,,,,,
08/29/2014  05:00:00,,295,295,9,,,69,,24,,,,,,
08/29/2014  06:00:00,,279,279,10,,,67,,28,,,,,,
08/29/2014  07:00:00,,293,293,4,,,67,,30,,,,,,
08/29/2014  08:00:00,,288,288,6,,,67,,33,,,,,,
08/29/2014  09:00:00,,307,307,5,,,66,,34,,,,,,
08/29/2014  10:00:00,,279,279,4,,,65,,42,,,,,,
08/29/2014  11:00:00,,254,254,5,,,64,,43,,,,,,
08/29/2014  12:00:00,,218,218,5,,,63,,40,,,,,,
08/29/2014  13:00:00,,221,221,7,,,62,,42,,,,,,
08/29/2014  14:00:00,,211,211,3,,,66,,37,,,,,,
08/29/2014  15:00:00,,207,207,2,,,68,,32,,,,,,
08/29/2014  16:00:00,,53,53,2,,,72,,39,,,,,,
08/29/2014  17:00:00,,211,211,2,,,71,,34,,,,,,
08/29/2014  18:00:00,,219,219,2,,,75,,33,,,,,,
08/29/2014  19:00:00,,254,254,3,,,80,,26,,,,,,
08/29/2014  20:00:00,,253,253,3,,,83,,23,,,,,,
08/29/2014  21:00:00,,297,297,3,,,84,,21,,,,,,
08/29/2014  22:00:00,,275,275,8,,,85,,15,,,,,,
08/29/2014  23:00:00,,270,270,9,,,82,,17,,,,,,
08/30/2014  00:00:00,,267,267,9,,,78,,20,,,,,,
08/30/2014  01:00:00,,271,271,8,,,74,,23,,,,,,
08/30/2014  02:00:00,,273,273,14,,,66,,23,,,,,,
08/30/2014  03:00:00,,276,276,10,,,63,,20,,,,,,
08/30/2014  04:00:00,,270,270,7,,,61,,19,,,,,,
08/30/2014  05:00:00,,283,283,9,,,60,,28,,,,,,
08/30/2014  06:00:00,,297,297,8,,,59,,49,,,,,,
08/30/2014  07:00:00,,286,286,11,,,58,,57,,,,,,
08/30/2014  08:00:00,,294,294,9,,,57,,56,,,,,,
08/30/2014  09:00:00,,310,310,5,,,56,,56,,,,,,
08/30/2014  10:00:00,,263,263,10,,,56,,54,,,,,,
08/30/2014  11:00:00,,240,240,6,,,56,,43,,,,,,
08/30/2014  12:00:00,,289,289,9,,,56,,55,,,,,,
08/30/2014  13:00:00,,313,313,6,,,56,,51,,,,,,
08/30/2014  14:00:00,,323,323,4,,,59,,48,,,,,,
08/30/2014  15:00:00,,305,305,3,,,60,,50,,,,,,
08/30/2014  16:00:00,,293,293,4,,,62,,42,,,,,,
08/30/2014  17:00:00,,255,255,3,,,67,,39,,,,,,
08/30/2014  18:00:00,,274,274,3,,,70,,37,,,,,,
08/30/2014  19:00:00,,270,270,2,,,70,,38,,,,,,
08/30/2014  20:00:00,,289,289,5,,,77,,32,,,,,,
08/30/2014  21:00:00,,274,274,7,,,71,,37,,,,,,
08/30/2014  22:00:00,,267,267,9,,,73,,38,,,,,,
08/30/2014  23:00:00,,264,264,7,,,73,,35,,,,,,
08/31/2014  00:00:00,,263,263,8,,,71,,37,,,,,,
08/31/2014  01:00:00,,267,267,9,,,66,,43,,,,,,
08/31/2014  02:00:00,,286,286,11,,,58,,56,,,,,,
08/31/2014  03:00:00,,283,283,11,,,56,,61,,,,,,
08/31/2014  04:00:00,,300,300,9,,,55,,63,,,,,,
08/31/2014  05:00:00,,307,307,5,,,56,,53,,,,,,
08/31/2014  06:00:00,,297,297,6,,,55,,61,,,,,,
08/31/2014  07:00:00,,301,301,4,,,54,,64,,,,,,
08/31/2014  08:00:00,,285,285,3,,,53,,70,,,,,,
08/31/2014  09:00:00,,305,305,2,,,52,,71,,,,,,
08/31/2014  10:00:00,,111,111,0,,,51,,78,,,,,,
08/31/2014  11:00:00,,273,273,0,,,51,,75,,,,,,
08/31/2014  12:00:00,,15,15,0,,,51,,76,,,,,,
08/31/2014  13:00:00,,348,348,2,,,51,,69,,,,,,
08/31/2014  14:00:00,,1,1,3,,,55,,55,,,,,,
08/31/2014  15:00:00,,48,48,6,,,56,,53,,,,,,
08/31/2014  16:00:00,,28,28,7,,,59,,40,,,,,,
08/31/2014  17:00:00,,36,36,5,,,62,,40,,,,,,
08/31/2014  18:00:00,,64,64,3,,,66,,39,,,,,,
08/31/2014  19:00:00,,61,61,2,,,71,,36,,,,,,
08/31/2014  20:00:00,,284,284,3,,,76,,30,,,,,,
08/31/2014  21:00:00,,272,272,6,,,78,,24,,,,,,
08/31/2014  22:00:00,,271,271,8,,,75,,23,,,,,,
08/31/2014  23:00:00,,270,270,10,,,75,,24,,,,,,
09/01/2014  00:00:00,,279,279,10,,,73,,28,,,,,,
09/01/2014  01:00:00,,287,287,7,,,69,,34,,,,,,
09/01/2014  02:00:00,,2,2,13,,,61,,42,,,,,,
09/01/2014  03:00:00,,2,2,13,,,61,,43,,,,,,
09/01/2014  04:00:00,,21,21,12,,,60,,45,,,,,,
09/01/2014  05:00:00,,49,49,12,,,58,,52,,,,,,
09/01/2014  06:00:00,,49,49,11,,,57,,55,,,,,,
09/01/2014  07:00:00,,45,45,16,,,57,,55,,,,,,
09/01/2014  08:00:00,,54,54,13,,,57,,54,,,,,,
09/01/2014  09:00:00,,62,62,10,,,56,,54,,,,,,
09/01/2014  10:00:00,,48,48,12,,,56,,50,,,,,,
09/01/2014  11:00:00,,56,56,13,,,56,,48,,,,,,
09/01/2014  12:00:00,,64,64,14,,,56,,45,,,,,,
09/01/2014  13:00:00,,61,61,15,,,55,,48,,,,,,
09/01/2014  14:00:00,,71,71,6,,,60,,42,,,,,,
09/01/2014  15:00:00,,90,90,11,,,62,,44,,,,,,
09/01/2014  16:00:00,,92,92,14,,,63,,38,,,,,,
09/01/2014  17:00:00,,85,85,7,,,68,,32,,,,,,
09/01/2014  18:00:00,,87,87,7,,,71,,30,,,,,,
09/01/2014  19:00:00,,104,104,5,,,74,,28,,,,,,
09/01/2014  20:00:00,,69,69,4,,,77,,26,,,,,,
09/01/2014  21:00:00,,75,75,3,,,79,,22,,,,,,
09/01/2014  22:00:00,,284,284,4,,,89,,17,,,,,,
09/01/2014  23:00:00,,281,281,5,,,86,,21,,,,,,
09/02/2014  00:00:00,,275,275,6,,,80,,27,,,,,,
09/02/2014  01:00:00,,313,313,5,,,75,,30,,,,,,
09/02/2014  02:00:00,,9,9,9,,,70,,31,,,,,,
09/02/2014  03:00:00,,45,45,13,,,70,,32,,,,,,
09/02/2014  04:00:00,,47,47,13,,,69,,32,,,,,,
09/02/2014  05:00:00,,50,50,11,,,67,,34,,,,,,
09/02/2014  06:00:00,,52,52,9,,,67,,36,,,,,,
09/02/2014  07:00:00,,62,62,5,,,66,,37,,,,,,
09/02/2014  08:00:00,,64,64,4,,,66,,38,,,,,,
09/02/2014  09:00:00,,51,51,3,,,66,,37,,,,,,
09/02/2014  10:00:00,,68,68,4,,,66,,36,,,,,,
09/02/2014  11:00:00,,346,346,3,,,63,,40,,,,,,
09/02/2014  12:00:00,,109,109,3,,,63,,40,,,,,,
09/02/2014  13:00:00,,329,329,4,,,62,,42,,,,,,
09/02/2014  14:00:00,,40,40,4,,,65,,40,,,,,,
09/02/2014  15:00:00,,70,70,4,,,68,,38,,,,,,
09/02/2014  16:00:00,,65,65,4,,,71,,34,,,,,,
09/02/2014  17:00:00,,75,75,3,,,74,,31,,,,,,
09/02/2014  18:00:00,,305,305,2,,,79,,26,,,,,,
09/02/2014  19:00:00,,280,280,4,,,80,,25,,,,,,
09/02/2014  20:00:00,,272,272,6,,,81,,22,,,,,,
09/02/2014  21:00:00,,257,257,5,,,85,,19,,,,,,
09/02/2014  22:00:00,,275,275,7,,,86,,14,,,,,,
09/02/2014  23:00:00,,269,269,9,,,84,,13,,,,,,
09/03/2014  00:00:00,,282,282,11,,,79,,23,,,,,,
09/03/2014  01:00:00,,279,279,10,,,76,,29,,,,,,
09/03/2014  02:00:00,,336,336,10,,,68,,41,,,,,,
09/03/2014  03:00:00,,350,350,11,,,66,,45,,,,,,
09/03/2014  04:00:00,,31,31,15,,,61,,58,,,,,,
09/03/2014  05:00:00,,21,21,15,,,59,,62,,,,,,
09/03/2014  06:00:00,,24,24,12,,,58,,62,,,,,,